Springfield, CO

11:02 PM MDT on June 24, 2017 (GMT -0600)
Springfield

Weather History for KSPD - November, 2011

Change the Weather History Date:

Saturday, November 12, 2011

  Actual Average Record
Temperature  
Mean Temperature 54 °F -  
Max Temperature 69 °F 59 °F 73 °F (1999)
Min Temperature 38 °F 28 °F 8 °F (2014)
Degree Days  
Heating Degree Days 11 22  
Month to date heating degree days 278 234  
Since 1 July heating degree days 640 679  
Cooling Degree Days 0 0  
Month to date cooling degree days 0 0  
Year to date cooling degree days 1530 1028  
Growing Degree Days 4 (Base 50)    
Moisture  
Dew Point 27 °F    
Average Humidity 41    
Maximum Humidity 64    
Minimum Humidity 17    
Precipitation  
Precipitation 0.00 in 0.02 in 0.01 in (2014)
Month to date precipitation 0.82  
Year to date precipitation 5.62  
Sea Level Pressure  
Sea Level Pressure 29.53 in    
Wind  
Wind Speed 13 mph (West)    
Max Wind Speed 36 mph    
Max Gust Speed 44 mph    
T = Trace of Precipitation, MM = Missing Value Source: NWS Daily Summary

Daily Weather History Graph

Daily Weather History Graph

Search for Another Location

Airport or City:

Trip Planner

Search our weather history database for the weather conditions in past years. The results will help you decide how hot, cold, wet, or windy it might be!

Date:

Astronomy

Nov. 12, 2011 Rise Set
Actual Time 6:26 AM MST 4:42 PM MST
Civil Twilight 5:58 AM MST 5:10 PM MST
Nautical Twilight 5:27 AM MST 5:41 PM MST
Astronomical Twilight 4:56 AM MST 6:12 PM MST
Moon 6:02 PM MST (11/12) 8:07 AM MST (11/12)
Length of Visible Light 11h 11m
Length of Day
10h 16m
Waning Gibbous, 97% of the Moon is Illuminated
Nov 12
Waning Gibbous
Nov 18
Last Quarter
Nov 24
New
Dec 2
First Quarter
Dec 10
Full

Hourly Weather History & Observations

Time (MST) Temp. Windchill Dew Point Humidity Pressure Visibility Wind Dir Wind Speed Gust Speed Precip Events Conditions
12:56 AM 46.0 °F 39.9 °F 24.1 °F 42% 29.54 in - WNW 13.8 mph - N/A   Unknown
1:56 AM 39.9 °F 36.7 °F 25.0 °F 55% 29.53 in - WNW 4.6 mph - N/A   Unknown
2:56 AM 41.0 °F 35.8 °F 26.1 °F 55% 29.53 in - West 8.1 mph - N/A   Unknown
3:56 AM 45.0 °F 36.9 °F 26.1 °F 48% 29.52 in - WNW 20.7 mph 26.5 mph N/A   Unknown
4:56 AM 41.0 °F 34.7 °F 27.0 °F 57% 29.55 in - WNW 10.4 mph - N/A   Unknown
5:56 AM 42.1 °F 34.9 °F 27.0 °F 55% 29.57 in - WNW 13.8 mph - N/A   Unknown
6:56 AM 41.0 °F 34.7 °F 28.0 °F 60% 29.59 in - West 10.4 mph - N/A   Unknown
7:56 AM 44.1 °F 38.6 °F 28.9 °F 55% 29.60 in - WNW 10.4 mph - N/A   Unknown
8:56 AM 54.0 °F - 28.9 °F 38% 29.58 in - WNW 17.3 mph - N/A   Unknown
9:56 AM 60.1 °F - 30.9 °F 33% 29.59 in - WNW 19.6 mph 31.1 mph N/A   Unknown
10:56 AM 63.0 °F - 28.9 °F 28% 29.57 in - WNW 28.8 mph 41.4 mph N/A   Unknown
11:56 AM 66.0 °F - 26.1 °F 22% 29.55 in - WNW 29.9 mph 39.1 mph N/A   Unknown
12:56 PM 68.0 °F - 24.1 °F 19% 29.51 in - WNW 13.8 mph 20.7 mph N/A   Unknown
1:56 PM 69.1 °F - 23.0 °F 18% 29.51 in - West 18.4 mph 25.3 mph N/A   Unknown
2:56 PM 68.0 °F - 21.9 °F 17% 29.51 in - WNW 10.4 mph 20.7 mph N/A   Unknown
3:56 PM 64.9 °F - 27.0 °F 24% 29.52 in - West 6.9 mph - N/A   Unknown
4:56 PM 57.9 °F - 26.1 °F 30% 29.54 in - West 10.4 mph - N/A   Unknown
5:56 PM 55.9 °F - 26.1 °F 32% 29.55 in - West 12.7 mph 21.9 mph N/A   Unknown
6:56 PM 52.0 °F - 28.0 °F 40% 29.57 in - West 15.0 mph 19.6 mph N/A   Unknown
7:56 PM 48.9 °F - 28.9 °F 46% 29.55 in - WSW 11.5 mph - N/A   Unknown
8:56 PM 48.9 °F - 28.9 °F 46% 29.49 in - WSW 10.4 mph - N/A   Unknown
9:56 PM 45.0 °F 43.5 °F 28.9 °F 53% 29.48 in - West 3.5 mph - N/A   Unknown
10:56 PM 45.0 °F 40.1 °F 30.9 °F 58% 29.45 in - West 9.2 mph - N/A   Unknown
11:56 PM 43.0 °F 38.2 °F 32.0 °F 65% 29.43 in - West 8.1 mph - N/A   Unknown